Owatonna, MN

11:39 PM CDT on August 21, 2017 (GMT -0500)
Owatonna Degner Regional

Weather History for KOWA - February, 2012

Change the Weather History Date:

Wednesday, February 1, 2012

  Actual Average Record
Temperature  
Mean Temperature 34 °F -  
Max Temperature 37 °F 24 °F 48 °F (1989)
Min Temperature 32 °F 4 °F -19 °F (1979)
Degree Days  
Heating Degree Days 30    
Moisture  
Dew Point 33 °F    
Average Humidity 98    
Maximum Humidity 100    
Minimum Humidity 93    
Precipitation  
Precipitation 0.00 in - - ()
Sea Level Pressure  
Sea Level Pressure 30.06 in    
Wind  
Wind Speed 5 mph (SW)    
Max Wind Speed 10 mph    
Max Gust Speed -    
Visibility 1 miles    
Events Fog , Snow    
Averages and records for this station are not official NWS values.
T = Trace of Precipitation, MM = Missing Value Source: NWS Daily Summary

Daily Weather History Graph

Daily Weather History Graph

Search for Another Location

Airport or City:

Trip Planner

Search our weather history database for the weather conditions in past years. The results will help you decide how hot, cold, wet, or windy it might be!

Date:

Astronomy

Feb. 01, 2012 Rise Set
Actual Time 7:31 AM CST 5:22 PM CST
Civil Twilight 7:00 AM CST 5:53 PM CST
Nautical Twilight 6:25 AM CST 6:27 PM CST
Astronomical Twilight 5:51 AM CST 7:01 PM CST
Moon 11:47 AM CST (2/1) 2:20 AM CST (2/1)
Length of Visible Light 10h 52m
Length of Day
9h 51m
Waxing Gibbous, 65% of the Moon is Illuminated
Feb 1
Waxing Gibbous
Feb 7
Full
Feb 14
Last Quarter
Feb 21
New
Feb 29
First Quarter

Hourly Weather History & Observations

Time (CST) Temp. Windchill Dew Point Humidity Pressure Visibility Wind Dir Wind Speed Gust Speed Precip Events Conditions
12:14 AM 32.0 °F 23.6 °F 32.0 °F 100% 29.98 in 1.8 mi West 10.4 mph - N/A   Overcast
12:34 AM 32.0 °F 24.8 °F 32.0 °F 100% 29.99 in 2.0 mi WNW 8.1 mph - N/A   Overcast
12:54 AM 32.0 °F 25.6 °F 32.0 °F 100% 29.99 in 1.5 mi WNW 6.9 mph - N/A   Overcast
1:14 AM 32.0 °F 25.6 °F 32.0 °F 100% 30.00 in 1.8 mi West 6.9 mph - N/A   Overcast
1:34 AM 32.0 °F 24.2 °F 30.2 °F 93% 30.00 in 1.5 mi WNW 9.2 mph - N/A   Overcast
1:54 AM 32.0 °F 27.5 °F 30.2 °F 93% 30.01 in 1.8 mi WNW 4.6 mph - N/A   Overcast
2:14 AM 32.0 °F 26.4 °F 32.0 °F 100% 30.01 in 1.2 mi WNW 5.8 mph - N/A   Overcast
2:34 AM 32.0 °F 25.6 °F 32.0 °F 100% 30.01 in 1.0 mi WNW 6.9 mph - N/A   Overcast
2:54 AM 32.0 °F - 32.0 °F 100% 30.02 in 0.8 mi Calm Calm - N/A   Overcast
3:14 AM 32.0 °F 27.5 °F 30.2 °F 93% 30.01 in 0.5 mi West 4.6 mph - N/A Fog Fog
3:34 AM 32.0 °F 24.2 °F 32.0 °F 100% 30.03 in 0.2 mi WSW 9.2 mph - N/A Fog Fog
3:54 AM 32.0 °F 27.5 °F 32.0 °F 100% 30.03 in 0.5 mi West 4.6 mph - N/A Fog Fog
4:14 AM 32.0 °F 27.5 °F 32.0 °F 100% 30.03 in 0.5 mi West 4.6 mph - N/A Fog Fog
4:34 AM 32.0 °F 26.4 °F 32.0 °F 100% 30.03 in 0.2 mi West 5.8 mph - N/A Fog Fog
4:54 AM 32.0 °F 26.4 °F 32.0 °F 100% 30.04 in 0.2 mi WSW 5.8 mph - N/A Fog Fog
5:14 AM 32.0 °F - 30.2 °F 93% 30.04 in 0.2 mi Calm Calm - N/A Fog Fog
5:34 AM 32.0 °F 26.4 °F 30.2 °F 93% 30.03 in 0.5 mi NW 5.8 mph - N/A Fog Fog
5:54 AM 32.0 °F 28.7 °F 30.2 °F 93% 30.05 in 0.2 mi WSW 3.5 mph - N/A Fog Fog
6:14 AM 32.0 °F 28.7 °F 32.0 °F 100% 30.05 in 0.2 mi WSW 3.5 mph - N/A Fog Fog
6:34 AM 32.0 °F 27.5 °F 32.0 °F 100% 30.06 in 0.2 mi West 4.6 mph - N/A Fog Fog
6:54 AM 32.0 °F 27.5 °F 32.0 °F 100% 30.06 in 0.2 mi WNW 4.6 mph - N/A Fog Fog
7:14 AM 32.0 °F 27.5 °F 32.0 °F 100% 30.07 in 0.2 mi West 4.6 mph - N/A Fog Fog
7:34 AM 32.0 °F 27.5 °F 32.0 °F 100% 30.07 in 0.2 mi West 4.6 mph - N/A Fog Fog
7:54 AM 32.0 °F - 30.2 °F 93% 30.07 in 0.2 mi Calm Calm - N/A Fog Fog
8:14 AM 32.0 °F - 30.2 °F 93% 30.07 in 0.2 mi Calm Calm - N/A Fog Fog
8:34 AM 32.0 °F - 30.2 °F 93% 30.08 in 0.2 mi Calm Calm - N/A Fog Fog
9:14 AM 32.0 °F - 32.0 °F 100% 30.08 in 0.2 mi Calm Calm - N/A Fog Fog
9:34 AM 32.0 °F - 32.0 °F 100% 30.08 in 0.2 mi Calm Calm - N/A   Overcast
10:14 AM 32.0 °F - 32.0 °F 100% 30.08 in 0.2 mi Calm Calm - N/A Fog Fog
10:34 AM 32.0 °F - 32.0 °F 100% 30.09 in 0.2 mi Calm Calm - N/A Fog Fog
10:54 AM 33.8 °F - 33.8 °F 100% 30.09 in 0.2 mi Calm Calm - N/A Fog Fog
11:14 AM 33.8 °F - 33.8 °F 100% 30.09 in 0.2 mi Calm Calm - N/A Fog Fog
11:34 AM 33.8 °F - 33.8 °F 100% 30.09 in 0.2 mi Calm Calm - N/A Fog Fog
11:54 AM 33.8 °F - 33.8 °F 100% 30.09 in 0.5 mi Calm Calm - N/A Fog Fog
12:14 PM 35.6 °F - 33.8 °F 93% 30.08 in 0.5 mi Calm Calm - N/A Fog Fog
12:34 PM 35.6 °F 32.8 °F 35.6 °F 100% 30.08 in 2.5 mi South 3.5 mph - N/A   Overcast
12:54 PM 35.6 °F 30.7 °F 33.8 °F 93% 30.08 in 1.0 mi SSE 5.8 mph - N/A   Overcast
1:14 PM 35.6 °F 31.7 °F 35.6 °F 100% 30.08 in 1.2 mi SSE 4.6 mph - N/A   Overcast
1:34 PM 35.6 °F 29.2 °F 35.6 °F 100% 30.07 in 1.8 mi SSE 8.1 mph - N/A   Overcast
1:54 PM 35.6 °F 30.7 °F 35.6 °F 100% 30.07 in 2.0 mi South 5.8 mph - N/A   Overcast
2:14 PM 35.6 °F 31.7 °F 35.6 °F 100% 30.07 in 3.0 mi South 4.6 mph - N/A   Overcast
2:34 PM 35.6 °F 32.8 °F 35.6 °F 100% 30.07 in 2.5 mi South 3.5 mph - N/A   Overcast
3:14 PM 37.4 °F 34.9 °F 35.6 °F 93% 30.07 in 2.5 mi SE 3.5 mph - N/A   Overcast
3:34 PM 37.4 °F - 35.6 °F 93% 30.07 in 3.0 mi Calm Calm - N/A   Overcast
3:54 PM 37.4 °F 33.8 °F 35.6 °F 93% 30.07 in 2.5 mi SE 4.6 mph - N/A   Overcast
4:14 PM 37.4 °F 32.1 °F 35.6 °F 93% 30.07 in 2.5 mi SSE 6.9 mph - N/A   Overcast
4:34 PM 35.6 °F 30.7 °F 35.6 °F 100% 30.07 in 2.0 mi SSE 5.8 mph - N/A   Overcast
5:14 PM 35.6 °F 32.8 °F 35.6 °F 100% 30.07 in 0.8 mi South 3.5 mph - N/A   Overcast
5:34 PM 35.6 °F 31.7 °F 35.6 °F 100% 30.08 in 1.0 mi SSE 4.6 mph - N/A   Overcast
5:54 PM 35.6 °F 29.2 °F 35.6 °F 100% 30.08 in 0.2 mi SSE 8.1 mph - N/A Fog Fog
6:14 PM 35.6 °F 29.2 °F 35.6 °F 100% 30.08 in 0.2 mi SSE 8.1 mph - N/A Fog Fog
6:34 PM 35.6 °F 29.9 °F 35.6 °F 100% 30.07 in 0.2 mi SSE 6.9 mph - N/A Snow Light Snow
6:54 PM 35.6 °F 30.7 °F 33.8 °F 93% 30.08 in 0.2 mi SSE 5.8 mph - N/A Snow Light Snow
7:14 PM 35.6 °F 29.9 °F 33.8 °F 93% 30.07 in 0.2 mi SSE 6.9 mph - N/A Snow Light Snow
7:34 PM 35.6 °F 32.8 °F 33.8 °F 93% 30.08 in 0.2 mi SSE 3.5 mph - N/A Snow Light Snow
7:54 PM 35.6 °F 30.7 °F 33.8 °F 93% 30.08 in 0.2 mi SSE 5.8 mph - N/A Snow Light Snow
8:14 PM 33.8 °F 27.0 °F 33.8 °F 100% 30.08 in 0.2 mi SSE 8.1 mph - N/A Snow Light Snow
8:34 PM 33.8 °F 27.0 °F 33.8 °F 100% 30.08 in 0.2 mi South 8.1 mph - N/A Snow Light Snow
8:54 PM 33.8 °F 27.7 °F 33.8 °F 100% 30.08 in 0.2 mi South 6.9 mph - N/A Snow Light Snow
9:14 PM 33.8 °F 29.6 °F 33.8 °F 100% 30.08 in 0.2 mi South 4.6 mph - N/A Snow Light Snow
9:34 PM 33.8 °F 28.6 °F 33.8 °F 100% 30.08 in 0.2 mi SSE 5.8 mph - N/A Snow Light Snow
9:54 PM 33.8 °F 28.6 °F 33.8 °F 100% 30.08 in 0.2 mi SSE 5.8 mph - N/A Fog Fog
10:14 PM 33.8 °F 28.6 °F 33.8 °F 100% 30.08 in 0.8 mi South 5.8 mph - N/A   Overcast
10:34 PM 33.8 °F 27.7 °F 33.8 °F 100% 30.08 in 1.2 mi South 6.9 mph - N/A   Overcast
10:54 PM 33.8 °F 27.7 °F 33.8 °F 100% 30.08 in 2.0 mi South 6.9 mph - N/A   Mostly Cloudy
11:14 PM 33.8 °F 29.6 °F 33.8 °F 100% 30.09 in 4.0 mi South 4.6 mph - N/A   Clear
11:34 PM 33.8 °F - 33.8 °F 100% 30.09 in 4.0 mi Calm Calm - N/A   Clear
11:54 PM 33.8 °F 29.6 °F 33.8 °F 100% 30.10 in 5.0 mi South 4.6 mph - N/A   Clear